Simultaneous Nadir Overpasses (SNOs) Predictions

Prediction of SNOs between AQUA and METOP-A Satellite Orbit:

Table of predicted SNOs for the next 14.0 days since TLE Epoch: 11/24/2017
Index Date (AQUA) Time (AQUA) Lat,Lon (AQUA) SZA (AQUA ) Date (METOP-A) Time (METOP-A) Lat,Lon (METOP-A) SZA (METOP-A ) Distance(km) Time Diff (sec)
1 11/27/2017 16:57:22 -74.03, 99.38 84.79 11/27/2017 16:56:56 -74.04, 99.37 84.78 1.00 26
2 11/27/2017 17:46:50 74.09, -93.11 95.27 11/27/2017 17:47:34 74.12, -93.11 95.30 3.19 44
3 11/30/2017 12:31:38 -74.06, 165.77 84.29 11/30/2017 12:31:14 -74.06, 165.83 84.28 2.02 24
4 11/30/2017 13:21:06 74.11, -26.72 95.78 11/30/2017 13:21:52 74.13, -26.67 95.79 2.86 46
5 12/03/2017 08:05:52 -74.04,-127.75 83.89 12/03/2017 08:05:32 -74.03,-127.84 83.89 2.92 20
6 12/03/2017 08:55:20 74.09, 39.76 96.18 12/03/2017 08:56:10 74.10, 39.66 96.18 3.26 50
7 12/06/2017 02:50:28 73.36, 132.53 95.78 12/06/2017 02:49:23 73.28, 129.51 95.77 96.60 65
8 12/06/2017 03:40:08 -74.08, -61.40 83.48 12/06/2017 03:39:50 -74.05, -61.39 83.51 3.56 18
9 12/06/2017 04:29:36 74.14, 106.11 96.59 12/06/2017 04:30:28 74.11, 106.09 96.56 3.34 52




NCC Satellite Simultaneous Nadir Overpasses (SNOs) Prediction Service
